This is the latest recevied weather packets stored in our database for station/object DM4XI-13. If no packets are shown the sender has not sent any weather packets the latest 10 day(s).
| Time | Temp. | Humidity | Pressure | Rain* | Wind** | Luminosity | Snow |
|---|---|---|---|---|---|---|---|
| 1777616189 | 10.56° C | 49% | 1026.2 hPa | 0 mm | 0.45 m/s, 147° | 180 W/m² | - |
| 1777616127 | 10.56° C | 48% | 1026.1 hPa | 0 mm | 0.45 m/s, 120° | 178 W/m² | - |
| 1777616066 | 10° C | 48% | 1026.2 hPa | 0 mm | 0 m/s | 176 W/m² | - |
| 1777616005 | 10° C | 50% | 1026.1 hPa | 0 mm | 0 m/s | 173 W/m² | - |
| 1777615944 | 10° C | 50% | 1026.1 hPa | 0 mm | 0 m/s | 171 W/m² | - |
| 1777615883 | 10° C | 50% | 1026.3 hPa | 0 mm | 0 m/s | 169 W/m² | - |
| 1777615822 | 10° C | 50% | 1026.2 hPa | 0 mm | 0 m/s | 167 W/m² | - |
| 1777615761 | 9.44° C | 51% | 1026.1 hPa | 0 mm | 0 m/s | 164 W/m² | - |
| 1777615700 | 8.89° C | 52% | 1026.3 hPa | 0 mm | 0 m/s | 163 W/m² | - |
| 1777615639 | 8.89° C | 52% | 1026.1 hPa | 0 mm | 0 m/s | 161 W/m² | - |
| 1777615578 | 8.89° C | 53% | 1026 hPa | 0 mm | 0 m/s | 155 W/m² | - |
| 1777615517 | 8.89° C | 53% | 1026.1 hPa | 0 mm | 0.45 m/s, 121° | 158 W/m² | - |
| 1777615456 | 8.89° C | 53% | 1026.3 hPa | 0 mm | 0 m/s | 155 W/m² | - |
| 1777615395 | 8.89° C | 53% | 1026.2 hPa | 0 mm | 0 m/s | 153 W/m² | - |
| 1777615334 | 8.89° C | 52% | 1026.3 hPa | 0 mm | 0.45 m/s, 128° | 151 W/m² | - |
| 1777615273 | 8.89° C | 52% | 1026.2 hPa | 0 mm | 0.45 m/s, 65° | 149 W/m² | - |
| 1777615213 | 8.89° C | 53% | 1026.1 hPa | 0 mm | 0 m/s | 147 W/m² | - |
| 1777615151 | 8.89° C | 52% | 1026.1 hPa | 0 mm | 0.45 m/s, 127° | 145 W/m² | - |
| 1777615090 | 8.89° C | 52% | 1026.1 hPa | 0 mm | 0 m/s | 143 W/m² | - |
| 1777615030 | 8.89° C | 52% | 1026.1 hPa | 0 mm | 0 m/s | 141 W/m² | - |
| 1777614968 | 8.89° C | 52% | 1026.1 hPa | 0 mm | 0 m/s | 139 W/m² | - |
| 1777614907 | 8.89° C | 53% | 1026.3 hPa | 0 mm | 0 m/s | 137 W/m² | - |
| 1777614847 | 8.89° C | 53% | 1026.2 hPa | 0 mm | 0 m/s | 135 W/m² | - |
| 1777614785 | 8.89° C | 53% | 1026.2 hPa | 0 mm | 0.45 m/s, 133° | 133 W/m² | - |
| 1777614724 | 8.89° C | 52% | 1026.3 hPa | 0 mm | 0 m/s | 131 W/m² | - |
* Rain latest hour (hover to see other rain measurements)
** Current wind speed in m/s (hover to see current wind gust speed)